Location: Grand Rapids
(42.9630°N, 85.6680°W)
Time: 03:23:33
(UTC-04:00)

A-11 Canister half - Pass Details

Date: 06 June 2024
Orbit: 1524 x 1684 km, 47.3° (Epoch: 21 June)

Event Time Altitude Azimuth Distance (km) Brightness Sun altitude
Rises 23:25:18 0° 291° (WNW) 4,689 12.4 -17.1°
Reaches altitude 10° 23:28:19 10° 292° (WNW) 3,716 11.8 -17.4°
Maximum altitude 23:37:45 88° 21° (NNE) 1,573 9.0 -18.3°
Enters shadow 23:46:02 16° 113° (ESE) 3,367 10.3 -19.1°
Drops below altitude 10° 23:47:29 10° 114° (ESE) 3,822 - -19.2°
Sets 23:50:38 0° 114° (ESE) 4,828 - -19.5°
